Flag for U.S.A. Weather past 2 weeks in Fort Collins, Colorado, U.S.A.

Now
28 °F

Clear.


Feels Like: 25 °F
Forecast: 13 / 32 °F
Wind: 3 mph from Southwest

Location: Fort Collins-Loveland Municipal Airport

Current Time: Mar 2, 2015 at 8:31:32 PM

Latest Report: Mar 2, 2015 at 7:55 PM


Visibility: 5 mi

Pressure: 29.58 "Hg

Humidity: 74%

Dew point: 21 °F

Location of Fort CollinsLocation

Historic Weather in Fort Collins — Graph

°F

Fort Collins temperature yesterday

Maximum temperature yesterday: 27 °F (at 11:35 AM)
Minimum temperature yesterday: 14 °F (at 7:15 AM)
Average temperature yesterday: 21 °F

Past Weeks' High & Low Weather Summary

 TemperatureHumidityPressure
High64 °F (Feb 19, 3:35 PM)100% (Feb 24, 1:15 AM)30.41 "Hg (Feb 24, 1:15 AM)
Low1 °F (Feb 23, 5:35 AM)15% (Feb 19, 5:35 PM)29.58 "Hg (Mar 2, 6:35 PM)
Average24 °F73%30.07 "Hg
* Reported Feb 15 7:15 PM — Mar 2 7:15 PM, Fort Collins, Weather by CustomWeather, © 2015

Note: Actual official high and low records may vary slightly from our data, if they occured in-between our weather recording intervals... More about our weather records

Advertising

Fort Collins weather history for previous 24 hours

 ConditionsComfort  
Time TempWeatherWind HumidityBarometerVisibility
7:15 PM
Mon, Mar 2
30 °FClear.No wind75%29.58 "Hg7 mi
6:55 PM28 °FClear.3 mph80%29.58 "Hg7 mi
6:35 PM28 °FClear.5 mph80%29.58 "Hg7 mi
6:15 PM30 °FClear.3 mph75%29.60 "Hg7 mi
5:55 PM30 °FClear.3 mph75%29.61 "Hg6 mi
5:35 PM30 °FSunny.5 mph80%29.62 "Hg7 mi
5:15 PM32 °FSunny.5 mph75%29.64 "Hg6 mi
4:55 PM32 °FSunny.7 mph75%29.66 "Hg7 mi
4:35 PM34 °FSunny.7 mph70%29.67 "Hg7 mi
4:15 PM34 °FSunny.5 mph70%29.68 "Hg8 mi
3:55 PM34 °FSunny.3 mph70%29.69 "Hg8 mi
3:35 PM34 °FSunny.3 mph70%29.70 "Hg9 mi
3:15 PM34 °FSunny.No wind70%29.71 "Hg8 mi
2:55 PM36 °FSunny.No wind65%29.72 "Hg8 mi
2:35 PM34 °FSunny.No wind65%29.73 "Hg9 mi
1:55 PM37 °FSunny.3 mph60%29.75 "Hg9 mi
1:35 PM36 °FSunny.No wind60%29.77 "Hg8 mi
1:15 PM36 °FSunny.No wind65%29.78 "Hg8 mi
12:55 PM32 °FSunny.3 mph69%29.79 "Hg8 mi
12:35 PM32 °FSunny.3 mph64%29.82 "Hg9 mi
12:15 PM30 °FSunny.5 mph69%29.84 "Hg8 mi
11:55 AM30 °FSunny.5 mph64%29.85 "Hg8 mi
11:35 AM28 °FPassing clouds.No wind69%29.87 "Hg9 mi
11:15 AM30 °FPassing clouds.No wind69%29.89 "Hg9 mi
10:55 AM30 °FSunny.5 mph69%29.90 "Hg9 mi
10:35 AM28 °FPassing clouds.5 mph74%29.91 "Hg9 mi
10:15 AM28 °FPassing clouds.7 mph74%29.92 "Hg9 mi
9:55 AM27 °FSunny.7 mph74%29.92 "Hg9 mi
9:35 AM27 °FSunny.8 mph74%29.94 "Hg8 mi
9:15 AM25 °FPassing clouds.8 mph80%29.95 "Hg8 mi
8:55 AM25 °FSunny.9 mph80%29.95 "Hg8 mi
8:35 AM23 °FSunny.6 mph80%29.97 "Hg5 mi
8:15 AM21 °FPassing clouds.8 mph86%29.97 "Hg5 mi
7:55 AM23 °FPartly sunny.7 mph86%29.98 "Hg5 mi
7:35 AM23 °FOvercast.10 mph86%29.99 "Hg5 mi
7:15 AM23 °FOvercast.9 mph86%30.00 "Hg5 mi
6:55 AM23 °FOvercast.9 mph86%30.00 "Hg4 mi
6:35 AM21 °FOvercast.7 mph86%30.00 "Hg4 mi
6:15 AM21 °FPassing clouds.8 mph93%30.02 "Hg5 mi
5:55 AM21 °FOvercast.8 mph86%30.02 "Hg5 mi
5:35 AM19 °FPassing clouds.6 mph93%30.03 "Hg4 mi
5:15 AM19 °FPassing clouds.6 mph86%30.03 "Hg4 mi
4:55 AM21 °FPassing clouds.5 mph86%30.05 "Hg4 mi
4:35 AM21 °FClear.5 mph86%30.06 "Hg4 mi
4:15 AM21 °FClear.6 mph86%30.05 "Hg4 mi
3:55 AM21 °FClear.6 mph86%30.07 "Hg5 mi
3:35 AM21 °FClear.5 mph86%30.07 "Hg5 mi
3:15 AM21 °FClear.6 mph80%30.09 "Hg5 mi
2:55 AM21 °FClear.No wind86%30.10 "Hg5 mi
2:35 AM23 °FPassing clouds.No wind80%30.12 "Hg7 mi
2:15 AM25 °FPassing clouds.No wind80%30.13 "Hg7 mi
1:55 AM25 °FOvercast.No wind80%30.14 "Hg7 mi
1:35 AM25 °FOvercast.No wind80%30.15 "Hg7 mi
12:55 AM23 °FPassing clouds.No wind86%30.16 "Hg7 mi
12:35 AM23 °FPassing clouds.No wind80%30.18 "Hg5 mi
12:15 AM23 °FClear.No wind80%30.19 "Hg3 mi
11:55 PM
Sun, Mar 1
25 °FClear.3 mph74%30.20 "Hg4 mi
11:35 PM25 °FClear.3 mph74%30.21 "Hg8 mi
11:15 PM25 °FClear.5 mph74%30.21 "Hg9 mi
10:55 PM25 °FClear.5 mph74%30.22 "Hg10 mi
10:35 PM25 °FClear.3 mph74%30.23 "Hg10 mi
10:15 PM25 °FClear.5 mph74%30.24 "Hg10 mi
9:55 PM25 °FClear.3 mph74%30.25 "Hg10 mi
9:35 PM25 °FClear.3 mph74%30.25 "Hg10 mi
9:15 PM23 °FClear.3 mph80%30.25 "Hg10 mi
8:55 PM23 °FPassing clouds.5 mph80%30.24 "Hg10 mi
8:15 PM23 °FPassing clouds.5 mph80%30.24 "Hg10 mi
Weather by CustomWeather, © 2015

See weather overviewHow to use our weather pages